[[{"header":{"parameterUnit":"m.s-1","parameterCategory":1,"la1":30.2991,"la2":30.254,"lo1":-89.0895,"lo2":-89.0444,"dy":0.0017,"dx":0.0017,"nx":28,"ny":28,"refTime":"2024-04-19T03:00:00:Z","depth":0,"parameterNumber":2,"parameterNumberName":"U-component_of_WINDS"},"data":[0,0,0,0,0,0,0,0,0,0,0,0,0,0,0,0,0,0,0,0,0,0,0,0,0,0,0,0,0,0,0,0,0,0,0,0,0,0,0,0,0,0,0,0,0,0,0,0,0,0,0,0,0,0,0,0,0,0,0.2871,0.2871,0,0.2906,0.2907,0.2907,0.2915,0.2915,0.2915,0.2915,0.295,0.2951,0.2952,0,0,0,0,0,0,0,0,0,0,0,0,0,0.2809,0.281,0.2871,0.2871,0.2872,0.2906,0.2907,0.2907,0.2915,0.2915,0.2915,0.2914,0.295,0.2951,0.2952,0,0,0,0,0,0,0,0,0,0,0,0,0,0.2839,0.281,0.2871,0.288,0.2881,0.2906,0.2907,0.2907,0.2915,0.2915,0.2915,0.2914,0.2949,0.2951,0.2953,0.2971,0,0,0.2958,0.2959,0,0,0,0,0,0,0,0,0.2838,0.2842,0.2878,0.2879,0.2881,0.2906,0.2898,0.2929,0.2915,0.2902,0.2915,0.2914,0.2936,0.2939,0.2946,0.2972,0.2974,0.2958,0.2959,0.296,0.2961,0,0,0,0,0,0,0,0.2835,0.284,0.2885,0.2879,0.288,0.2882,0.2886,0.2904,0.2921,0.2904,0.2904,0.2908,0.2936,0.2944,0.2947,0.2974,0.2958,0.296,0.2961,0.2961,0.3016,0.3016,0,0,0,0,0,0,0.2832,0.2838,0.2884,0.2886,0.2858,0.2883,0.2888,0.2898,0.292,0.2923,0.2909,0.2909,0.2941,0.2945,0.2948,0.297,0.296,0.2962,0.2963,0.3015,0.3016,0.3016,0,0,0,0,0,0,0.2831,0.2836,0.2882,0.2862,0.2868,0.2885,0.2897,0.2899,0.2907,0.2924,0.2927,0.2914,0.2941,0.2946,0.2965,0.2971,0.2962,0.2964,0.3015,0.3016,0.3016,0.3014,0,0,0,0,0,0,0.2829,0.2835,0.2843,0.2862,0.2869,0.2899,0.2897,0.29,0.291,0.291,0.293,0.2933,0.2941,0.2962,0.2966,0.2973,0.2965,0.3014,0.3015,0.3016,0.3013,0.3014,0.3015,0,0,0,0,0,0.2826,0.2841,0.2843,0.2849,0.2879,0.2899,0.2903,0.2913,0.2911,0.2918,0.2929,0.2932,0.297,0.2964,0.2969,0.2977,0.3014,0.3015,0.3016,0.3013,0.3014,0.3015,0,0,0,0,0,0,0.2822,0.2844,0.2846,0.2868,0.2882,0.2901,0.291,0.2914,0.2929,0.2928,0.294,0.2944,0.2962,0.2971,0.2964,0.2994,0.2992,0.2994,0.2988,0.2989,0.299,0.2987,0.2967,0,0,0,0,0,0.2823,0.2838,0.2856,0.2873,0.288,0.2894,0.2903,0.2909,0.2924,0.293,0.2942,0.2956,0.2971,0.298,0.2995,0.3015,0.3018,0.3022,0.3023,0.3023,0.3025,0.3035,0.3036,0.3019,0.3019,0.3019,0,0,0.2826,0.284,0.2849,0.2873,0.2884,0.2899,0.2899,0.2915,0.2925,0.2932,0.2951,0.296,0.2976,0.2995,0.3004,0.3003,0.303,0.3025,0.3025,0.3026,0.3036,0.3037,0.3039,0.302,0.302,0.302,0,0,0.2839,0.2852,0.2867,0.2878,0.2895,0.2904,0.2907,0.2926,0.2932,0.2951,0.2956,0.2969,0.2995,0.3005,0.3014,0.303,0.3033,0.3034,0.3039,0.3048,0.3049,0.3051,0.3055,0.3057,0.3036,0.3036,0.3036,0,0.2841,0.2864,0.2874,0.2889,0.2899,0.2906,0.292,0.2931,0.2952,0.2958,0.2957,0.2988,0.3,0.3021,0.3024,0.3032,0.3035,0.3032,0.3048,0.305,0.3051,0.3056,0.3058,0.3036,0.3036,0.3036,0.3036,0,0.2864,0.288,0.289,0.291,0.2921,0.2935,0.2947,0.2957,0.2962,0.2971,0.2989,0.3003,0.302,0.3025,0.303,0.3047,0.3046,0.3046,0.3044,0.3053,0.3057,0.3059,0.3036,0.3036,0.3036,0.3036,0,0,0.2876,0.2901,0.2904,0.2913,0.2932,0.2944,0.2958,0.2975,0.2983,0.2996,0.3009,0.3029,0.303,0.304,0.3046,0.3054,0.3065,0.3054,0.3054,0.3055,0.3083,0.3082,0.3084,0.3067,0.3067,0.3068,0.3081,0,0.2891,0.2918,0.2927,0.2949,0.2963,0.2969,0.2981,0.2994,0.3002,0.3014,0.3023,0.3038,0.3037,0.3043,0.3052,0.3062,0.307,0.3061,0.3078,0.3078,0.3073,0.3086,0.3086,0.3098,0.3083,0.3083,0.3083,0,0.2912,0.2926,0.295,0.2966,0.2972,0.2983,0.2998,0.3011,0.3024,0.303,0.304,0.3046,0.306,0.3057,0.3077,0.307,0.3077,0.3083,0.3083,0.3085,0.3081,0.3088,0.3102,0.3104,0.3087,0.3086,0.3086,0,0.2917,0.2942,0.2959,0.2966,0.2986,0.2994,0.3002,0.3015,0.3024,0.3038,0.3043,0.3058,0.3066,0.3077,0.3086,0.3083,0.3104,0.3102,0.3109,0.3108,0.3113,0.3113,0.3128,0.3118,0.3118,0.3118,0.3118,0,0.2933,0.2947,0.2962,0.2972,0.2987,0.2997,0.3012,0.302,0.3032,0.3044,0.305,0.306,0.3072,0.3083,0.309,0.3105,0.3109,0.3113,0.3115,0.3112,0.3112,0.3117,0.3116,0.3119,0.3119,0.3119,0.3118,0,0.2942,0.2952,0.2971,0.2988,0.2992,0.3003,0.3017,0.3026,0.3034,0.3049,0.3053,0.3065,0.308,0.3089,0.3108,0.3112,0.3128,0.313,0.3123,0.3124,0.313,0.3129,0.3149,0.3152,0.3141,0.3141,0.3141,0,0.2951,0.2962,0.2979,0.2988,0.2996,0.3009,0.3018,0.3028,0.3037,0.3053,0.3061,0.3075,0.3087,0.3109,0.312,0.3133,0.3135,0.3141,0.3137,0.3134,0.3135,0.3134,0.3134,0.3142,0.3142,0.3142,0.3142,0,0.2966,0.297,0.2983,0.2998,0.3009,0.3021,0.3033,0.3039,0.305,0.306,0.3075,0.3084,0.3102,0.3116,0.313,0.3138,0.3142,0.3143,0.3145,0.3143,0.3139,0.3141,0.3125,0.3143,0.3143,0.3143,0.3143,0.3142,0.2975,0.2984,0.2998,0.3012,0.3022,0.3033,0.3042,0.3052,0.3064,0.308,0.3084,0.3099,0.3111,0.3131,0.3139,0.315,0.315,0.3153,0.3154,0.3155,0.3154,0.3137,0.3153,0.3153,0.3153,0.3153,0.3153,0,0.299,0.2998,0.3011,0.3028,0.3038,0.3041,0.3054,0.3062,0.3075,0.3087,0.3098,0.3114,0.3128,0.3139,0.3152,0.3159,0.3161,0.3162,0.3162,0.3163,0.3154,0.3151,0.3161,0.3161,0.3161,0.316,0.316,0.316,0.2999,0.3014,0.302,0.3041,0.3049,0.3064,0.3071,0.3081,0.309,0.3107,0.3118,0.3126,0.3136,0.3151,0.3163,0.3165,0.317,0.3171,0.3174,0.3165,0.3164,0.3163,0.316,0.3172,0.3172,0.3182,0.3182,0.3182]},{"header":{"parameterUnit":"m.s-1","parameterCategory":1,"la1":30.2991,"la2":30.254,"lo1":-89.0895,"lo2":-89.0444,"dy":0.0017,"dx":0.0017,"nx":28,"ny":28,"refTime":"2024-04-19T03:00:00:Z","depth":0,"parameterNumber":3,"parameterNumberName":"V-component_of_WINDS"},"data":[0,0,0,0,0,0,0,0,0,0,0,0,0,0,0,0,0,0,0,0,0,0,0,0,0,0,0,0,0,0,0,0,0,0,0,0,0,0,0,0,0,0,0,0,0,0,0,0,0,0,0,0,0,0,0,0,0,0,2.4058,2.4058,0,2.406,2.406,2.406,2.4036,2.4036,2.4035,2.4035,2.4036,2.4037,2.4037,0,0,0,0,0,0,0,0,0,0,0,0,0,2.4031,2.4032,2.4058,2.4058,2.4058,2.406,2.406,2.406,2.4037,2.4036,2.4035,2.4034,2.4036,2.4037,2.4037,0,0,0,0,0,0,0,0,0,0,0,0,0,2.4039,2.4032,2.4058,2.4046,2.4045,2.406,2.406,2.406,2.4037,2.4036,2.4035,2.4034,2.4036,2.4037,2.4038,2.4063,0,0,2.4041,2.4041,0,0,0,0,0,0,0,0,2.4039,2.404,2.4048,2.4047,2.4046,2.4047,2.4052,2.4061,2.4037,2.404,2.4035,2.4033,2.4041,2.4041,2.4044,2.4063,2.4064,2.4041,2.4041,2.4042,2.4042,0,0,0,0,0,0,0,2.4038,2.404,2.4059,2.4048,2.4047,2.4041,2.4041,2.4053,2.4046,2.404,2.4038,2.4039,2.404,2.4043,2.4043,2.4064,2.4041,2.4042,2.4042,2.4042,2.4104,2.4105,0,0,0,0,0,0,2.4039,2.404,2.4059,2.4059,2.404,2.4042,2.4042,2.4048,2.4046,2.4044,2.4039,2.4037,2.4042,2.4042,2.4043,2.4073,2.4042,2.4043,2.4043,2.4103,2.4105,2.4106,0,0,0,0,0,0,2.4039,2.4041,2.4059,2.4049,2.405,2.4043,2.405,2.4048,2.4051,2.4045,2.4044,2.4044,2.4041,2.4042,2.4059,2.4073,2.4043,2.4044,2.4102,2.4104,2.4105,2.4134,0,0,0,0,0,0,2.4038,2.4041,2.4051,2.4049,2.4051,2.4074,2.4051,2.4049,2.4053,2.4051,2.4049,2.4048,2.404,2.4057,2.406,2.4074,2.4045,2.4101,2.4103,2.4105,2.4132,2.4136,2.414,0,0,0,0,0,2.4037,2.4059,2.4052,2.4054,2.4064,2.4075,2.4076,2.4067,2.4054,2.4064,2.406,2.4048,2.4071,2.4059,2.4062,2.4077,2.41,2.4102,2.4105,2.413,2.4135,2.414,0,0,0,0,0,0,2.4063,2.4058,2.4051,2.4072,2.4074,2.4071,2.4083,2.4073,2.4078,2.4076,2.4064,2.4064,2.4082,2.4081,2.4068,2.4101,2.4083,2.4086,2.4102,2.4107,2.4111,2.4111,2.4046,0,0,0,0,0,2.4071,2.4081,2.4076,2.4096,2.4097,2.409,2.4095,2.4088,2.4089,2.409,2.4087,2.4089,2.4096,2.4101,2.4108,2.4131,2.4131,2.4143,2.4147,2.4151,2.4153,2.4165,2.4171,2.4114,2.4114,2.4114,0,0,2.4087,2.4087,2.4094,2.4101,2.4102,2.4112,2.4091,2.4103,2.411,2.4091,2.4107,2.4105,2.4106,2.4126,2.4135,2.4125,2.4169,2.4154,2.4156,2.4157,2.4168,2.4174,2.4179,2.4115,2.4115,2.4115,0,0,2.4123,2.4124,2.414,2.4141,2.4143,2.4138,2.4142,2.414,2.4138,2.4154,2.414,2.4148,2.4162,2.4163,2.4165,2.4202,2.419,2.4204,2.4227,2.4239,2.4243,2.4247,2.426,2.4265,2.4207,2.4207,2.4207,0,2.4144,2.4159,2.415,2.4163,2.4166,2.415,2.4166,2.4167,2.4171,2.4174,2.4163,2.418,2.4179,2.4199,2.4208,2.4211,2.4215,2.4204,2.4243,2.4247,2.4251,2.4263,2.4268,2.4209,2.4208,2.4208,2.4208,0,2.4185,2.4196,2.4208,2.4213,2.4218,2.4232,2.4224,2.4231,2.4223,2.4219,2.4235,2.4234,2.424,2.4244,2.4237,2.4263,2.4257,2.4246,2.4227,2.4258,2.4269,2.4274,2.4211,2.421,2.421,2.4209,0,0,2.4236,2.4235,2.424,2.4242,2.4242,2.425,2.4264,2.427,2.4276,2.4279,2.429,2.4302,2.4291,2.4293,2.4286,2.4296,2.4325,2.4283,2.4283,2.4291,2.4355,2.4364,2.4369,2.4318,2.4319,2.4319,2.4355,0,2.4271,2.4295,2.4287,2.4311,2.4321,2.4305,2.4317,2.4319,2.4315,2.4323,2.4319,2.4327,2.4312,2.4314,2.4324,2.432,2.4338,2.4317,2.4328,2.4328,2.4328,2.4375,2.4385,2.4418,2.4359,2.436,2.436,0,2.4315,2.4321,2.4346,2.4345,2.4348,2.4359,2.4365,2.4372,2.4373,2.437,2.4373,2.4364,2.4377,2.4358,2.4376,2.4362,2.4366,2.4365,2.4366,2.4366,2.4346,2.4377,2.4428,2.4433,2.4367,2.4367,2.4366,0,2.4351,2.4364,2.4381,2.4383,2.4382,2.439,2.439,2.439,2.4394,2.4399,2.4401,2.4407,2.441,2.4415,2.4407,2.4394,2.4426,2.4407,2.4423,2.4424,2.4431,2.443,2.4483,2.4433,2.4433,2.4433,2.4433,0,2.4391,2.4407,2.4397,2.4407,2.4424,2.4414,2.4432,2.443,2.443,2.444,2.4427,2.4436,2.4424,2.4432,2.4426,2.4442,2.4443,2.4441,2.4439,2.4442,2.4443,2.4445,2.4442,2.4434,2.4434,2.4434,2.4433,0,2.4433,2.4427,2.4444,2.4442,2.4442,2.4455,2.4453,2.4462,2.4458,2.447,2.4472,2.4466,2.4474,2.4467,2.4475,2.4471,2.4492,2.4486,2.4492,2.449,2.4507,2.4506,2.4563,2.457,2.4516,2.4516,2.4517,0,2.4459,2.4471,2.447,2.4476,2.4477,2.4486,2.4491,2.4481,2.4486,2.4489,2.4498,2.4505,2.4511,2.4526,2.4521,2.4528,2.4523,2.4542,2.4523,2.4526,2.4523,2.4522,2.4524,2.4546,2.4547,2.4547,2.4548,0,2.4506,2.4502,2.4509,2.4516,2.4522,2.4526,2.453,2.4535,2.4525,2.4532,2.4541,2.4545,2.4554,2.4562,2.4567,2.4566,2.4555,2.4554,2.4558,2.4561,2.4564,2.4563,2.4502,2.4552,2.4552,2.4552,2.4551,2.4551,2.454,2.455,2.4552,2.456,2.4562,2.4566,2.4574,2.4571,2.4579,2.4586,2.4579,2.459,2.4591,2.4597,2.4597,2.4606,2.4597,2.4603,2.4605,2.4607,2.4609,2.4563,2.4606,2.4606,2.4606,2.4606,2.4606,0,2.4586,2.4587,2.4595,2.46,2.4607,2.4597,2.46,2.4606,2.4616,2.4618,2.4624,2.4634,2.4642,2.4638,2.4645,2.4652,2.4647,2.4654,2.4653,2.4654,2.4616,2.4612,2.4658,2.4658,2.4658,2.4658,2.4658,2.4658,2.4611,2.4628,2.4624,2.4642,2.4641,2.4652,2.4655,2.4658,2.466,2.4672,2.4678,2.4676,2.4676,2.4682,2.4689,2.4687,2.4691,2.4699,2.4696,2.4661,2.4656,2.4651,2.4647,2.47,2.47,2.4733,2.4733,2.4733]}]]